Time,TemperatureF,DewpointF,PressureIn,WindDirection,WindDirectionDegrees,WindSpeedMPH,WindSpeedGustMPH,Humidity,HourlyPrecipIn,Conditions,Clouds,dailyrainin,SoftwareType,DateUTC
2013-02-12 00:01:00,27.0,22.0,30.07,WSW,257,6.0,15.0,82,0.00,,,0.00,,2013-02-12 06:01:00,
2013-02-12 00:12:00,26.0,22.0,30.07,WNW,291,4.0,13.0,83,0.00,,,0.00,,2013-02-12 06:12:00,
2013-02-12 00:21:00,26.0,22.0,30.07,WNW,291,4.0,13.0,83,0.00,,,0.00,,2013-02-12 06:21:00,
2013-02-12 00:32:00,26.0,21.0,30.08,WSW,256,4.0,12.0,81,0.00,,,0.00,,2013-02-12 06:32:00,
2013-02-12 00:42:00,26.0,21.0,30.08,NW,315,3.0,14.0,82,0.00,,,0.00,,2013-02-12 06:42:00,
2013-02-12 00:51:00,26.0,21.0,30.08,NW,315,3.0,14.0,82,0.00,,,0.00,,2013-02-12 06:51:00,
2013-02-12 01:01:00,26.0,21.0,30.08,NW,308,4.0,11.0,82,0.00,,,0.00,,2013-02-12 07:01:00,
2013-02-12 01:11:00,26.0,21.0,30.08,NW,308,4.0,11.0,82,0.00,,,0.00,,2013-02-12 07:11:00,
2013-02-12 01:21:00,25.0,20.0,30.08,WSW,248,3.0,10.0,81,0.00,,,0.00,,2013-02-12 07:21:00,
2013-02-12 01:31:00,25.0,20.0,30.09,West,259,3.0,10.0,82,0.00,,,0.00,,2013-02-12 07:31:00,
2013-02-12 01:41:00,25.0,20.0,30.09,West,259,3.0,10.0,82,0.00,,,0.00,,2013-02-12 07:41:00,
2013-02-12 01:51:00,25.0,21.0,30.09,NW,325,3.0,8.0,83,0.00,,,0.00,,2013-02-12 07:51:00,
2013-02-12 02:01:00,25.0,21.0,30.09,WNW,286,3.0,8.0,83,0.00,,,0.00,,2013-02-12 08:01:00,
2013-02-12 02:11:00,25.0,21.0,30.09,WNW,286,3.0,8.0,83,0.00,,,0.00,,2013-02-12 08:11:00,
2013-02-12 02:21:00,25.0,21.0,30.10,WNW,285,4.0,8.0,83,0.00,,,0.00,,2013-02-12 08:21:00,
2013-02-12 02:32:00,26.0,22.0,30.11,WNW,296,4.0,9.0,83,0.00,,,0.00,,2013-02-12 08:32:00,
2013-02-12 02:41:00,26.0,22.0,30.11,WNW,296,4.0,9.0,83,0.00,,,0.00,,2013-02-12 08:41:00,
2013-02-12 02:52:00,26.0,22.0,30.10,West,280,3.0,12.0,84,0.00,,,0.00,,2013-02-12 08:52:00,
2013-02-12 03:01:00,26.0,22.0,30.11,WSW,255,6.0,13.0,83,0.00,,,0.00,,2013-02-12 09:01:00,
2013-02-12 03:11:00,26.0,22.0,30.11,WSW,255,6.0,13.0,83,0.00,,,0.00,,2013-02-12 09:11:00,
2013-02-12 03:21:00,25.0,20.0,30.11,WNW,292,3.0,11.0,82,0.00,,,0.00,,2013-02-12 09:21:00,
2013-02-12 03:32:00,25.0,20.0,30.11,WNW,292,3.0,11.0,82,0.00,,,0.00,,2013-02-12 09:32:00,
2013-02-12 03:41:00,25.0,20.0,30.11,WNW,292,3.0,11.0,82,0.00,,,0.00,,2013-02-12 09:41:00,
2013-02-12 03:51:00,25.0,20.0,30.10,WNW,289,4.0,9.0,82,0.00,,,0.00,,2013-02-12 09:51:00,
2013-02-12 04:01:00,25.0,21.0,30.10,WNW,282,3.0,9.0,83,0.00,,,0.00,,2013-02-12 10:01:00,
2013-02-12 04:11:00,25.0,21.0,30.10,WSW,257,3.0,8.0,83,0.00,,,0.00,,2013-02-12 10:11:00,
2013-02-12 04:21:00,25.0,21.0,30.10,WSW,257,3.0,8.0,83,0.00,,,0.00,,2013-02-12 10:21:00,
2013-02-12 04:32:00,24.0,20.0,30.10,West,271,3.0,8.0,84,0.00,,,0.00,,2013-02-12 10:32:00,
2013-02-12 04:43:00,24.0,20.0,30.10,West,271,3.0,8.0,84,0.00,,,0.00,,2013-02-12 10:43:00,
2013-02-12 04:51:00,24.0,20.0,30.11,WNW,303,4.0,8.0,84,0.00,,,0.00,,2013-02-12 10:51:00,
2013-02-12 05:01:00,24.0,20.0,30.11,West,265,2.0,7.0,84,0.00,,,0.00,,2013-02-12 11:01:00,
2013-02-12 05:11:00,24.0,20.0,30.11,West,265,2.0,7.0,84,0.00,,,0.00,,2013-02-12 11:11:00,
2013-02-12 05:21:00,24.0,20.0,30.10,WNW,287,3.0,7.0,84,0.00,,,0.00,,2013-02-12 11:21:00,
2013-02-12 05:32:00,24.0,20.0,30.10,NW,309,3.0,7.0,84,0.00,,,0.00,,2013-02-12 11:32:00,
2013-02-12 05:41:00,24.0,20.0,30.10,NW,309,3.0,7.0,84,0.00,,,0.00,,2013-02-12 11:41:00,
2013-02-12 05:52:00,24.0,20.0,30.10,WNW,299,2.0,7.0,84,0.00,,,0.00,,2013-02-12 11:52:00,
2013-02-12 06:01:00,24.0,20.0,30.10,WNW,290,2.0,6.0,85,0.00,,,0.00,,2013-02-12 12:01:00,
2013-02-12 06:11:00,24.0,20.0,30.10,WNW,290,2.0,6.0,85,0.00,,,0.00,,2013-02-12 12:11:00,
2013-02-12 06:21:00,24.0,20.0,30.10,WNW,286,2.0,5.0,85,0.00,,,0.00,,2013-02-12 12:21:00,
2013-02-12 06:32:00,24.0,20.0,30.11,WSW,246,4.0,9.0,85,0.00,,,0.00,,2013-02-12 12:32:00,
2013-02-12 06:42:00,24.0,20.0,30.11,WSW,246,4.0,9.0,85,0.00,,,0.00,,2013-02-12 12:42:00,
2013-02-12 06:52:00,24.0,20.0,30.11,West,281,3.0,10.0,85,0.00,,,0.00,,2013-02-12 12:52:00,
2013-02-12 08:21:00,24.0,20.0,30.12,WNW,291,3.0,4.0,85,0.00,,,0.00,,2013-02-12 14:21:00,
2013-02-12 08:32:00,25.0,21.0,30.12,NNW,346,4.0,7.0,86,0.00,,,0.00,,2013-02-12 14:32:00,
2013-02-12 08:42:00,25.0,21.0,30.12,NNW,346,4.0,7.0,86,0.00,,,0.00,,2013-02-12 14:42:00,
2013-02-12 08:52:00,25.0,21.0,30.12,West,263,3.0,10.0,86,0.00,,,0.00,,2013-02-12 14:52:00,
2013-02-12 09:02:00,25.0,21.0,30.11,WSW,257,4.0,8.0,85,0.00,,,0.00,,2013-02-12 15:02:00,
2013-02-12 09:11:00,25.0,21.0,30.12,West,269,4.0,10.0,86,0.00,,,0.00,,2013-02-12 15:11:00,
2013-02-12 09:21:00,25.0,21.0,30.12,West,269,4.0,10.0,86,0.00,,,0.00,,2013-02-12 15:21:00,
2013-02-12 09:32:00,25.0,21.0,30.13,WSW,244,4.0,9.0,86,0.00,,,0.00,,2013-02-12 15:32:00,
2013-02-12 09:42:00,25.0,21.0,30.13,WSW,244,4.0,9.0,86,0.00,,,0.00,,2013-02-12 15:42:00,
2013-02-12 09:52:00,25.0,21.0,30.13,WNW,294,5.0,13.0,85,0.00,,,0.00,,2013-02-12 15:52:00,
2013-02-12 10:01:00,26.0,22.0,30.12,West,273,7.0,12.0,85,0.00,,,0.00,,2013-02-12 16:01:00,
2013-02-12 10:11:00,26.0,22.0,30.12,West,273,7.0,12.0,85,0.00,,,0.00,,2013-02-12 16:11:00,
2013-02-12 10:22:00,26.0,22.0,30.12,West,267,2.0,10.0,85,0.00,,,0.00,,2013-02-12 16:22:00,
2013-02-12 10:32:00,26.0,22.0,30.13,WNW,286,3.0,7.0,85,0.00,,,0.00,,2013-02-12 16:32:00,
2013-02-12 10:41:00,26.0,22.0,30.13,WNW,286,3.0,7.0,85,0.00,,,0.00,,2013-02-12 16:41:00,
2013-02-12 10:51:00,26.0,22.0,30.13,West,279,5.0,10.0,84,0.00,,,0.00,,2013-02-12 16:51:00,
2013-02-12 11:01:00,26.0,22.0,30.13,West,274,4.0,12.0,83,0.00,,,0.00,,2013-02-12 17:01:00,
2013-02-12 11:12:00,26.0,22.0,30.13,West,274,4.0,12.0,83,0.00,,,0.00,,2013-02-12 17:12:00,
2013-02-12 11:21:00,26.0,22.0,30.12,SW,232,5.0,9.0,84,0.00,,,0.00,,2013-02-12 17:21:00,
2013-02-12 11:32:00,25.0,20.0,30.12,West,269,6.0,12.0,82,0.00,,,0.00,,2013-02-12 17:32:00,
2013-02-12 11:42:00,25.0,20.0,30.12,West,269,6.0,12.0,82,0.00,,,0.00,,2013-02-12 17:42:00,
2013-02-12 11:52:00,26.0,22.0,30.11,West,280,5.0,9.0,83,0.00,,,0.00,,2013-02-12 17:52:00,
2013-02-12 12:01:00,26.0,22.0,30.10,WNW,295,4.0,9.0,83,0.00,,,0.00,,2013-02-12 18:01:00,
2013-02-12 12:11:00,26.0,22.0,30.10,WNW,295,4.0,9.0,83,0.00,,,0.00,,2013-02-12 18:11:00,
2013-02-12 12:23:00,26.0,22.0,30.08,NW,315,6.0,12.0,83,0.00,,,0.00,,2013-02-12 18:23:00,
2013-02-12 12:32:00,26.0,22.0,30.07,NW,321,3.0,8.0,83,0.00,,,0.00,,2013-02-12 18:32:00,
2013-02-12 12:41:00,26.0,22.0,30.07,NW,321,3.0,8.0,83,0.00,,,0.00,,2013-02-12 18:41:00,
2013-02-12 12:51:00,26.0,21.0,30.06,WNW,288,3.0,7.0,82,0.00,,,0.00,,2013-02-12 18:51:00,
2013-02-12 13:02:00,26.0,22.0,30.07,West,267,5.0,11.0,83,0.00,,,0.00,,2013-02-12 19:02:00,
2013-02-12 13:11:00,26.0,22.0,30.07,West,267,5.0,11.0,83,0.00,,,0.00,,2013-02-12 19:11:00,
2013-02-12 13:21:00,26.0,22.0,30.07,West,267,5.0,11.0,83,0.00,,,0.00,,2013-02-12 19:21:00,
2013-02-12 13:31:00,27.0,22.0,30.06,West,260,3.0,10.0,82,0.00,,,0.00,,2013-02-12 19:31:00,
2013-02-12 13:41:00,27.0,22.0,30.06,West,260,3.0,10.0,82,0.00,,,0.00,,2013-02-12 19:41:00,
2013-02-12 13:52:00,28.0,22.0,30.06,NNW,337,3.0,8.0,79,0.00,,,0.00,,2013-02-12 19:52:00,
2013-02-12 14:01:00,28.0,22.0,30.06,NW,316,2.0,8.0,78,0.00,,,0.00,,2013-02-12 20:01:00,
2013-02-12 14:11:00,28.0,22.0,30.06,NW,316,2.0,8.0,78,0.00,,,0.00,,2013-02-12 20:11:00,
2013-02-12 14:21:00,28.0,22.0,30.05,WSW,245,3.0,9.0,77,0.00,,,0.00,,2013-02-12 20:21:00,
2013-02-12 14:31:00,28.0,22.0,30.06,WNW,287,4.0,8.0,77,0.00,,,0.00,,2013-02-12 20:31:00,
2013-02-12 14:41:00,28.0,22.0,30.06,WNW,287,4.0,8.0,77,0.00,,,0.00,,2013-02-12 20:41:00,
2013-02-12 14:52:00,28.0,21.0,30.06,SW,233,4.0,12.0,76,0.00,,,0.00,,2013-02-12 20:52:00,
2013-02-12 15:01:00,29.0,23.0,30.05,NW,307,4.0,10.0,77,0.00,,,0.00,,2013-02-12 21:01:00,
2013-02-12 15:11:00,29.0,23.0,30.05,NW,307,4.0,10.0,77,0.00,,,0.00,,2013-02-12 21:11:00,
2013-02-12 15:21:00,30.0,24.0,30.05,WNW,293,2.0,12.0,77,0.00,,,0.00,,2013-02-12 21:21:00,
2013-02-12 15:31:00,30.0,24.0,30.05,WNW,293,2.0,12.0,77,0.00,,,0.00,,2013-02-12 21:31:00,
2013-02-12 15:42:00,30.0,23.0,30.03,WNW,292,2.0,7.0,76,0.00,,,0.00,,2013-02-12 21:42:00,
2013-02-12 15:51:00,30.0,23.0,30.03,WNW,292,2.0,7.0,76,0.00,,,0.00,,2013-02-12 21:51:00,
2013-02-12 16:01:00,30.0,23.0,30.04,West,263,5.0,8.0,75,0.00,,,0.00,,2013-02-12 22:01:00,
2013-02-12 16:12:00,30.0,23.0,30.04,West,263,5.0,8.0,75,0.00,,,0.00,,2013-02-12 22:12:00,
2013-02-12 16:21:00,30.0,24.0,30.03,WSW,239,3.0,8.0,77,0.00,,,0.00,,2013-02-12 22:21:00,
2013-02-12 16:32:00,30.0,24.0,30.04,WSW,241,2.0,7.0,77,0.00,,,0.00,,2013-02-12 22:32:00,
2013-02-12 16:41:00,30.0,24.0,30.04,WSW,241,2.0,7.0,77,0.00,,,0.00,,2013-02-12 22:41:00,
2013-02-12 16:51:00,30.0,24.0,30.04,WSW,241,2.0,7.0,77,0.00,,,0.00,,2013-02-12 22:51:00,
2013-02-12 17:01:00,29.0,23.0,30.02,SSW,202,2.0,6.0,78,0.00,,,0.00,,2013-02-12 23:01:00,
2013-02-12 17:11:00,29.0,23.0,30.03,WSW,244,1.0,5.0,79,0.00,,,0.00,,2013-02-12 23:11:00,
2013-02-12 17:21:00,29.0,23.0,30.03,WSW,244,1.0,5.0,79,0.00,,,0.00,,2013-02-12 23:21:00,
2013-02-12 17:32:00,29.0,24.0,30.03,SW,236,2.0,5.0,80,0.00,,,0.00,,2013-02-12 23:32:00,
2013-02-12 17:42:00,29.0,24.0,30.03,SW,236,2.0,5.0,80,0.00,,,0.00,,2013-02-12 23:42:00,
2013-02-12 17:52:00,29.0,24.0,30.01,SW,224,2.0,4.0,81,0.00,,,0.00,,2013-02-12 23:52:00,
2013-02-12 18:02:00,29.0,24.0,30.01,SW,231,1.0,4.0,82,0.00,,,0.00,,2013-02-13 00:02:00,
2013-02-12 18:11:00,29.0,24.0,30.01,SW,231,1.0,4.0,82,0.00,,,0.00,,2013-02-13 00:11:00,
2013-02-12 18:21:00,28.0,24.0,30.01,SW,231,0.0,2.0,83,0.00,,,0.00,,2013-02-13 00:21:00,
2013-02-12 18:32:00,28.0,24.0,30.00,SW,231,0.0,2.0,84,0.00,,,0.00,,2013-02-13 00:32:00,
2013-02-12 18:42:00,28.0,24.0,30.00,SW,231,0.0,2.0,84,0.00,,,0.00,,2013-02-13 00:42:00,
2013-02-12 18:52:00,28.0,24.0,30.00,SW,231,0.0,0.0,85,0.00,,,0.00,,2013-02-13 00:52:00,
2013-02-12 19:01:00,27.0,23.0,30.00,SW,231,0.0,0.0,86,0.00,,,0.00,,2013-02-13 01:01:00,
2013-02-12 19:11:00,27.0,23.0,30.00,SW,231,0.0,0.0,86,0.00,,,0.00,,2013-02-13 01:11:00,
2013-02-12 19:21:00,27.0,24.0,29.99,SW,231,0.0,0.0,87,0.00,,,0.00,,2013-02-13 01:21:00,
2013-02-12 19:31:00,27.0,24.0,29.99,SW,231,0.0,3.0,87,0.00,,,0.00,,2013-02-13 01:31:00,
2013-02-12 19:42:00,27.0,24.0,29.99,SW,231,0.0,3.0,87,0.00,,,0.00,,2013-02-13 01:42:00,
2013-02-12 19:51:00,27.0,24.0,29.99,SW,231,0.0,0.0,87,0.00,,,0.00,,2013-02-13 01:51:00,
2013-02-12 20:01:00,26.0,23.0,29.98,SW,231,0.0,1.0,88,0.00,,,0.00,,2013-02-13 02:01:00,
2013-02-12 20:11:00,26.0,23.0,29.98,SW,231,0.0,1.0,88,0.00,,,0.00,,2013-02-13 02:11:00,
2013-02-12 20:21:00,26.0,23.0,29.98,SW,231,0.0,2.0,89,0.00,,,0.00,,2013-02-13 02:21:00,
2013-02-12 20:31:00,26.0,23.0,29.98,SW,231,0.0,2.0,89,0.00,,,0.00,,2013-02-13 02:31:00,
2013-02-12 20:41:00,26.0,23.0,29.98,SW,231,0.0,2.0,89,0.00,,,0.00,,2013-02-13 02:41:00,
2013-02-12 20:52:00,26.0,23.0,29.98,SW,231,0.0,4.0,89,0.00,,,0.00,,2013-02-13 02:52:00,
2013-02-12 21:01:00,26.0,23.0,29.98,SW,231,0.0,1.0,89,0.00,,,0.00,,2013-02-13 03:01:00,
2013-02-12 21:11:00,26.0,23.0,29.98,SW,231,0.0,2.0,89,0.00,,,0.00,,2013-02-13 03:11:00,
2013-02-12 21:21:00,26.0,23.0,29.98,SW,231,0.0,2.0,89,0.00,,,0.00,,2013-02-13 03:21:00,
2013-02-12 21:32:00,26.0,23.0,29.98,SW,231,0.0,2.0,89,0.00,,,0.00,,2013-02-13 03:32:00,
2013-02-12 21:41:00,26.0,23.0,29.98,SW,231,0.0,2.0,89,0.00,,,0.00,,2013-02-13 03:41:00,
2013-02-12 21:51:00,25.0,22.0,29.97,SW,231,0.0,0.0,90,0.00,,,0.00,,2013-02-13 03:51:00,
2013-02-12 22:01:00,25.0,23.0,29.96,SW,231,0.0,0.0,91,0.00,,,0.00,,2013-02-13 04:01:00,
2013-02-12 22:11:00,25.0,23.0,29.96,SW,231,0.0,0.0,91,0.00,,,0.00,,2013-02-13 04:11:00,
2013-02-12 22:21:00,25.0,23.0,29.96,SE,131,1.0,3.0,91,0.00,,,0.00,,2013-02-13 04:21:00,
2013-02-12 22:32:00,25.0,23.0,29.97,SE,132,0.0,1.0,91,0.00,,,0.00,,2013-02-13 04:32:00,
2013-02-12 22:41:00,25.0,23.0,29.97,SE,132,0.0,1.0,91,0.00,,,0.00,,2013-02-13 04:41:00,
2013-02-12 22:51:00,25.0,23.0,29.96,SE,132,0.0,2.0,91,0.00,,,0.00,,2013-02-13 04:51:00,
2013-02-12 23:01:00,25.0,23.0,29.96,South,189,0.0,2.0,91,0.00,,,0.00,,2013-02-13 05:01:00,
2013-02-12 23:11:00,24.0,22.0,29.96,South,189,0.0,2.0,91,0.00,,,0.00,,2013-02-13 05:11:00,
2013-02-12 23:22:00,24.0,22.0,29.96,South,189,0.0,2.0,91,0.00,,,0.00,,2013-02-13 05:22:00,
2013-02-12 23:31:00,24.0,22.0,29.95,WSW,257,2.0,6.0,91,0.00,,,0.00,,2013-02-13 05:31:00,
2013-02-12 23:42:00,24.0,22.0,29.95,WSW,257,2.0,6.0,91,0.00,,,0.00,,2013-02-13 05:42:00,
2013-02-12 23:52:00,24.0,22.0,29.94,SW,229,0.0,2.0,91,0.00,,,0.00,,2013-02-13 05:52:00,